Wind_Speed
9 11 10 14 11 8 5 2 4 5 9 8 9 9 9 8 9 9 4 6 9 7 7 10 10 7 4 8 6 9 7 6 11 15 17 16 17 16 17 18 15 17 17 15
8 11 5 10 11 10 9 7 5 6 6 11 9 8 9 9 8 9 9 8 6 8 9 7 7 1 3 8 4 1 3 4 1 9 16 13 14 17 14 15 17 14 17 19
8 9 7 3 4 4 4 4 5 5 11 7 8 11 10 9 10 9 8 7 7 3 10 14 11 7 4 2 1 2 4 4 7 6 13 14 15 13 12 12 12 13 13 14
6 5 4 6 4 9 10 7 7 8 7 5 8 9 9 8 10 9 8 9 8 14 20 18 8 12 10 7 3 1 3 5 5 7 7 12 12 11 11 12 11 11 13 15
4 3 5 6 3 7 3 5 6 9 10 8 8 11 8 8 8 9 9 11 16 18 18 15 19 14 6 3 2 3 4 2 3 2 6 9 9 10 12 14 11 15 13 14
2 5 4 2 7 7 7 3 7 11 10 11 9 5 1 8 11 10 17 14 12 13 15 12 11 12 14 11 15 13 11 9 7 5 3 7 13 13 15 18 15 15 18 15
1 4 5 2 5 6 6 6 6 9 9 11 7 6 7 9 9 15 14 8 7 11 12 10 7 8 10 10 8 7 10 11 11 9 11 12 13 15 14 20 20 19 23 25
0 2 2 5 8 7 5 4 9 7 7 9 11 10 9 8 8 11 13 9 6 6 6 6 7 6 6 8 9 14 16 18 17 17 17 18 18 18 18 20 21 24 25 27
3 5 4 7 8 6 8 7 7 6 7 8 9 7 10 8 8 9 13 10 7 7 4 4 5 7 9 12 13 16 19 24 26 25 24 24 23 23 24 21 23 26 25 25
5 8 8 7 6 8 8 8 8 7 9 8 7 9 7 6 7 9 11 10 9 8 6 7 7 9 12 16 17 17 17 19 20 22 26 28 28 30 26 24 26 23 23 25
4 5 6 13 2 6 8 8 8 8 9 10 10 8 8 7 7 9 9 7 6 4 5 10 13 15 16 14 13 15 17 18 20 22 25 29 31 31 31 31 29 28 29 29
3 4 11 6 8 8 7 6 7 7 7 7 8 5 5 3 3 2 2 7 8 10 12 15 16 15 17 19 19 20 21 22 22 22 25 25 26 28 28 29 29 32 33 35
4 10 5 4 6 7 8 7 7 4 5 7 10 13 10 7 9 11 11 6 6 6 9 13 17 20 22 23 25 26 26 27 27 26 24 23 23 23 26 30 32 30 30 27
11 14 5 4 3 7 8 4 7 10 9 10 9 5 2 6 10 8 4 6 9 12 15 16 14 14 15 17 22 27 30 31 29 27 26 26 25 27 26 25 24 28 29 29
3 6 6 6 7 7 8 7 6 5 4 7 18 15 13 9 6 7 9 12 14 12 11 19 23 23 26 30 29 28 28 25 25 27 28 28 29 26 29 30 29 27 27 28
2 6 6 3 8 8 7 4 3 7 8 8 10 10 9 9 9 11 15 10 13 16 20 20 24 29 26 27 27 28 27 28 30 30 27 28 29 30 28 28 28 27 27 26
4 5 5 3 6 8 9 9 8 7 7 7 6 7 8 11 13 14 7 13 15 19 21 24 26 26 26 22 22 25 23 25 27 30 28 27 25 25 24 22 24 25 25 25
9 9 10 9 9 9 8 8 9 8 5 5 6 7 10 7 4 10 12 17 19 21 22 22 21 17 17 13 18 25 24 26 28 29 29 29 30 30 30 29 29 28 26 28
9 10 10 11 12 9 6 6 6 6 6 5 5 5 6 6 9 13 16 17 15 16 17 20 14 8 8 21 30 34 30 29 30 31 31 32 32 31 30 31 31 30 27 26
11 15 14 10 9 4 3 5 5 5 7 7 4 6 11 14 12 15 18 18 19 13 13 12 4 8 23 31 36 32 28 26 28 29 28 29 30 31 31 31 28 28 23 22
9 10 7 6 4 5 4 5 5 6 5 6 8 11 17 12 14 17 15 12 13 10 8 4 10 21 31 34 30 25 24 26 27 29 30 30 30 30 29 28 28 27 26 26
11 5 9 8 6 5 5 8 9 5 8 9 12 11 11 12 14 13 16 16 5 3 8 10 19 26 32 25 23 24 26 27 27 29 30 31 30 29 27 25 23 22 24 25
12 10 8 7 5 5 8 8 3 9 4 8 8 9 10 11 12 11 7 10 4 7 10 13 21 30 32 24 21 23 25 27 27 28 30 25 24 19 18 18 18 19 21 21
5 4 3 3 5 9 8 7 3 5 9 9 9 6 8 6 14 14 10 5 7 7 10 15 24 30 25 21 26 27 27 27 27 28 26 20 18 12 8 10 12 10 9 6
3 7 7 10 9 8 4 2 6 5 10 14 7 0 6 8 10 14 3 7 11 11 11 14 21 32 30 33 29 28 28 27 28 27 24 23 22 21 15 10 9 15 21 23
12 12 12 2 6 8 7 9 8 9 9 11 11 10 7 7 9 4 6 9 11 10 12 12 18 27 39 37 29 28 27 28 28 27 26 26 26 27 26 24 24 25 26 26
6 4 8 10 12 10 9 8 7 8 9 8 10 12 9 6 3 4 7 10 12 12 15 14 14 20 27 35 30 27 28 28 30 28 28 27 27 29 28 27 27 28 30 29
Wind_Direction
286 305 190 174 185 177 167 154 116 139 131 156 139 123 122 106 75 67 92 88 101 93 76 70 63 50 58 79 99 86 136 202 218 225 231 228 233 247 248 244 255 247 251 270
307 293 255 162 185 176 169 177 206 126 118 144 144 113 105 109 103 85 68 55 111 124 124 118 105 55 43 110 133 339 342 295 335 217 215 224 233 248 241 235 240 236 254 244
267 287 309 182 181 160 177 165 175 169 162 147 152 133 140 135 125 112 97 72 40 345 159 153 160 182 171 151 201 193 233 277 263 268 239 234 222 221 212 230 247 256 235 226
245 327 314 233 214 143 108 101 74 72 104 101 148 159 144 141 135 126 109 81 50 81 63 58 38 182 191 187 114 3 293 241 282 265 233 221 232 232 247 234 236 213 212 215
180 243 258 317 52 97 77 60 63 91 60 23 88 85 34 87 101 104 96 78 72 85 81 60 42 54 130 114 107 311 268 181 246 266 221 235 248 234 240 250 245 253 226 231
221 174 229 165 85 72 99 34 352 74 59 60 33 89 188 90 89 80 74 65 51 96 79 66 44 40 45 41 52 45 31 36 33 38 8 284 261 264 258 243 261 258 238 226
321 216 120 15 62 100 116 193 61 75 81 81 86 146 133 86 86 110 109 85 58 70 86 72 53 32 15 14 21 1 338 330 326 319 313 301 296 279 279 249 244 245 246 249
236 57 261 311 32 103 191 82 88 69 89 114 126 123 123 123 128 125 132 134 102 77 55 24 8 358 337 321 320 317 318 317 318 316 311 307 302 302 296 272 250 245 248 258
73 159 174 61 114 86 82 98 58 87 57 103 104 131 136 136 134 136 118 117 89 74 42 5 344 336 326 321 318 313 311 307 305 307 307 306 303 298 297 295 273 254 249 249
42 358 10 87 74 88 76 72 52 92 96 82 74 77 115 108 89 90 82 76 53 37 16 343 333 323 316 313 311 305 300 296 292 292 297 300 298 294 285 274 274 273 263 255
180 203 359 296 120 109 85 88 76 65 81 86 77 67 73 69 68 71 68 46 19 350 309 296 296 297 295 291 294 298 298 296 295 294 291 286 283 280 276 274 269 264 265 267
189 195 186 198 137 130 125 127 106 117 96 114 115 121 106 102 98 115 259 269 253 253 261 272 277 277 282 282 280 277 277 279 281 282 286 289 292 293 289 282 279 282 277 272
81 333 357 102 116 80 109 96 76 49 159 159 166 173 184 185 209 229 242 252 280 294 302 298 294 290 290 287 282 274 271 275 277 277 276 275 278 283 289 290 288 292 280 281
161 197 206 56 86 56 46 29 119 73 55 98 86 67 57 58 59 52 21 328 312 308 304 305 321 325 326 327 317 296 283 276 271 270 268 270 272 276 274 274 275 277 277 283
342 150 160 162 112 118 91 73 73 56 30 43 62 63 53 46 32 16 7 346 332 335 338 321 317 311 313 311 304 300 296 290 284 280 275 272 271 267 274 272 270 271 271 275
357 81 40 110 154 151 122 79 75 79 71 62 52 42 40 31 5 342 330 347 349 321 314 310 304 305 308 307 306 302 291 288 288 284 276 276 273 269 263 259 260 264 261 259
26 19 359 237 106 70 64 72 80 71 60 51 44 30 2 339 324 317 333 322 311 308 304 301 301 304 309 312 313 309 304 302 297 293 286 280 275 274 275 276 262 255 256 259
92 91 72 68 62 66 62 62 60 52 47 30 358 336 312 315 335 318 305 310 308 305 303 306 309 306 322 343 338 327 319 305 295 286 280 275 272 272 270 265 261 259 262 265
98 105 91 77 70 63 58 53 48 19 346 336 330 318 296 288 304 296 293 295 295 299 313 319 331 327 324 333 335 327 313 301 295 290 284 281 280 275 272 267 260 256 253 250
92 98 100 102 92 81 70 37 353 331 313 296 305 316 307 285 287 284 290 286 292 304 317 328 311 332 340 336 327 315 305 299 294 290 286 280 275 271 270 270 273 269 269 258
112 119 134 123 111 67 16 339 328 308 319 329 322 305 296 289 310 301 293 288 294 313 336 344 18 355 345 337 326 318 312 304 297 291 286 280 275 269 263 259 257 257 253 254
73 50 82 75 60 21 19 2 346 34 340 326 317 332 344 328 322 312 304 294 312 349 11 40 13 1 352 343 332 323 314 306 304 299 290 283 274 265 257 254 253 251 257 254
55 58 55 40 24 351 320 309 320 316 289 316 317 325 319 318 321 310 302 328 85 45 74 32 11 1 5 348 333 336 333 327 320 315 311 305 316 276 248 246 248 257 250 249
80 44 343 307 292 287 273 231 242 297 308 302 300 294 313 349 338 342 324 98 38 57 73 30 16 14 9 356 3 354 347 342 338 336 339 342 343 336 297 271 266 260 262 252
335 290 283 275 267 281 162 211 241 327 324 321 308 22 320 331 332 334 34 75 66 83 50 28 23 23 19 17 8 3 357 356 360 2 3 15 25 39 42 64 101 122 123 122
260 257 270 92 66 35 34 37 2 327 346 334 328 322 325 314 338 358 102 69 86 67 51 37 26 28 32 27 12 14 13 14 18 19 23 29 37 46 57 70 78 91 103 110
287 20 23 56 46 31 5 351 342 333 346 360 333 323 324 279 303 74 81 87 87 75 53 53 41 35 34 36 26 26 29 28 34 36 38 42 48 55 59 69 75 82 92 97
Height
759 746 738 753 759 760 768 767 799 788 794 785 776 773 771 768 768 770 770 773 773 775 776 778 779 782 783 784 787 790 791 792 792 796 800 804 807 809 808 808 810 812 813 811
774 750 739 752 748 750 758 761 766 765 778 762 763 762 769 769 769 775 775 775 775 774 777 780 782 784 786 787 788 788 789 791 794 797 799 801 805 806 807 806 806 807 806 805
795 762 754 771 747 745 747 745 754 782 771 757 764 765 768 768 769 772 773 774 776 777 777 781 783 785 788 788 789 790 791 793 794 796 797 799 801 802 803 804 804 803 803 804
791 774 806 750 721 729 748 747 746 753 756 752 757 756 758 758 765 770 771 775 778 779 782 785 785 785 786 789 791 792 793 794 794 794 795 797 799 799 799 798 800 800 802 803
794 794 764 742 733 743 750 764 742 752 753 751 750 757 768 760 763 768 772 776 780 783 785 786 787 788 789 791 792 795 795 795 794 795 795 795 796 798 798 798 794 795 797 798
774 787 795 755 732 720 727 793 751 749 755 758 755 794 787 768 767 771 774 778 783 784 786 788 791 791 792 792 792 794 795 795 795 796 795 796 795 795 795 795 793 792 794 794
776 778 766 737 727 720 783 794 751 749 755 761 773 776 772 770 773 775 778 782 785 787 789 791 792 792 792 792 794 796 796 796 795 795 795 794 793 792 790 790 790 789 790 789
766 772 787 738 739 767 762 747 749 750 753 761 762 765 769 772 775 778 782 785 787 788 790 792 793 793 794 794 794 794 794 793 793 793 793 791 790 788 788 787 785 783 784 783
762 772 747 739 747 742 742 749 751 751 752 754 759 764 767 772 774 777 781 785 787 789 791 793 793 793 793 793 793 792 791 789 788 787 787 786 785 784 783 782 780 777 777 776
767 765 753 746 743 740 741 748 747 748 753 756 762 765 769 772 776 779 782 785 787 789 791 793 793 793 793 792 792 790 789 788 786 784 782 781 780 778 776 775 774 772 770 768
776 762 756 751 745 744 744 746 750 752 754 759 764 770 773 777 779 781 783 785 787 789 791 791 791 791 790 789 788 787 786 784 782 781 779 776 774 772 769 767 766 764 763 762
768 748 757 756 741 741 747 750 749 752 756 759 762 767 770 774 776 779 781 782 784 785 786 786 786 786 785 784 783 781 779 778 776 775 774 772 769 765 763 761 759 757 755 754
753 751 745 738 737 739 743 747 748 750 754 758 760 764 768 771 774 775 778 780 782 783 783 783 781 780 779 778 776 774 772 770 769 768 766 765 763 760 756 753 751 748 745 743
741 747 746 740 747 743 742 743 746 750 755 758 760 764 767 770 774 776 778 780 780 780 779 777 776 775 774 772 770 767 764 763 761 760 758 756 754 752 749 746 742 739 737 736
737 734 737 739 741 743 742 747 750 753 756 759 763 766 769 771 773 775 776 777 776 776 775 774 772 770 768 766 764 761 759 757 754 752 749 746 744 741 739 737 734 731 729 727
735 735 737 738 740 740 741 743 748 755 758 762 764 766 769 771 772 773 773 772 773 772 771 770 767 764 762 760 757 754 751 748 745 742 739 736 733 730 727 724 723 721 720 719
732 739 737 737 739 740 744 748 752 757 759 762 764 766 767 768 768 769 770 770 769 768 766 764 761 758 757 755 752 749 746 742 739 735 731 727 722 720 717 714 711 709 709 709
731 734 737 740 743 746 749 752 755 757 760 762 763 764 765 766 768 768 767 766 764 762 761 759 756 754 753 750 747 744 740 735 730 725 719 714 711 708 705 702 700 699 699 700
730 736 740 744 747 750 753 755 757 759 760 760 761 763 763 764 764 763 762 761 759 758 756 754 751 750 748 746 742 737 732 725 719 714 709 703 699 696 694 691 688 687 687 687
733 738 743 747 750 752 755 756 757 758 758 759 759 760 760 759 759 758 758 756 755 754 752 750 748 747 745 740 735 729 722 717 711 704 699 694 690 686 683 682 680 679 677 677
734 741 745 747 750 752 754 755 756 756 757 757 757 756 755 754 755 754 753 752 750 749 749 748 747 744 740 734 728 722 716 709 703 695 688 681 676 672 669 668 668 668 668 669
740 745 746 748 750 752 754 755 755 755 755 755 755 754 753 752 752 750 749 748 746 746 747 746 744 741 736 729 723 716 709 702 694 686 677 669 662 657 656 657 657 658 660 661
746 748 749 749 750 752 752 752 753 753 752 752 752 752 751 750 750 748 746 745 744 745 744 744 742 737 731 725 719 710 702 695 688 678 668 661 653 645 647 649 650 652 653 654
749 749 749 749 749 749 749 749 749 749 750 750 749 749 749 747 746 746 744 744 743 743 744 743 741 736 731 723 712 706 699 693 685 676 667 659 654 650 648 647 648 649 650 650
747 747 747 746 746 746 746 747 748 748 748 747 747 746 746 745 745 743 743 743 744 744 744 742 740 735 728 718 712 708 702 695 687 679 672 665 659 653 651 649 649 649 650 653
745 745 744 744 745 746 746 746 747 747 747 746 745 745 744 744 743 743 743 744 744 744 743 742 740 735 728 723 717 712 706 698 691 686 680 675 669 665 663 661 659 660 660 661
745 745 744 744 745 746 747 747 747 746 746 745 744 742 742 742 742 743 743 744 745 744 743 742 741 737 733 729 723 717 711 705 700 694 689 685 680 678 677 675 674 673 674 676